This demonstration page uses our WeatherBlox Daily Observations layout. Learn more.

Left ArrowRight Arrow

39.08367, -84.50855

Hourly Observations for April 28, 2018

Temp ( °F °C ) Dew Point ( °F °C ) Humidity (%) Winds ( mph kmh ) Pressure ( in mb ) Visibility ( mi km ) Precip ( " mm )
12:53 am 00:53 Clear 45 7.2 40 4.4 83 83 N N/A 29.80 1009 10 16 N/A
1:53 am 01:53 Partly Cloudy 46 7.8 40 4.4 79 79 N N/A 29.79 1009 10 16 N/A
2:53 am 02:53 Partly Cloudy 47 8.3 41 5 80 80 N N/A 29.76 1008 10 16 N/A
3:53 am 03:53 Cloudy 46 7.8 42 5.6 86 86 SSW 5 7 29.74 1007 10 16 N/A
4:53 am 04:53 Mostly Clear 48 8.9 41 5 77 77 SSW 10 17 29.74 1007 10 16 N/A
5:53 am 05:53 Clear 50 10 39 3.9 66 66 SW 9 15 29.75 1008 10 16 N/A
6:53 am 06:53 Mostly Sunny 53 11.7 39 3.9 59 59 W 12 19 29.78 1009 10 16 N/A
7:53 am 07:53 Sunny 49 9.4 40 4.4 71 71 N 10 17 29.85 1011 10 16 N/A
8:53 am 08:53 Sunny 51 10.6 42 5.6 71 71 NNW 10 17 29.89 1012 10 16 N/A
9:15 am 09:15 Mostly Cloudy 52 11.1 42 5.6 69 69 NNW 16 26 29.94 1014 10 16 N/A
9:53 am 09:53 Cloudy 49 9.4 40 4.4 71 71 N 17 28 29.93 1014 10 16 N/A
10:53 am 10:53 Cloudy 47 8.3 39 3.9 74 74 NNW 13 20 29.98 1015 10 16 N/A
11:53 am 11:53 Cloudy 48 8.9 40 4.4 74 74 N 8 13 30.01 1016 10 16 N/A
12:53 pm 12:53 Cloudy 51 10.6 39 3.9 64 64 VRB 5 7 30.02 1017 10 16 N/A
1:53 pm 13:53 Mostly Cloudy 55 12.8 36 2.2 49 49 VRB 7 11 30.02 1017 10 16 N/A
2:53 pm 14:53 Mostly Cloudy 56 13.3 39 3.9 53 53 N 14 22 30.04 1017 10 16 N/A
3:53 pm 15:53 Mostly Cloudy 59 15 37 2.8 44 44 WNW 17 28 30.05 1018 10 16 N/A
4:53 pm 16:53 Cloudy 54 12.2 34 1.1 47 47 N 9 15 30.06 1018 10 16 N/A
5:53 pm 17:53 Mostly Cloudy 56 13.3 32 undefined 40 40 NW 7 11 30.07 1018 10 16 N/A
6:53 pm 18:53 Mostly Cloudy 54 12.2 32 undefined 43 43 N 14 22 30.09 1019 10 16 N/A
7:53 pm 19:53 Mostly Cloudy 52 11.1 31 -0.6 45 45 N 10 17 30.10 1019 10 16 N/A
8:53 pm 20:53 Mostly Clear 49 9.4 31 -0.6 50 50 N 5 7 30.12 1020 10 16 N/A
9:53 pm 21:53 Partly Cloudy 46 7.8 34 1.1 63 63 N N/A 30.15 1021 10 16 N/A
10:53 pm 22:53 Partly Cloudy 41 5 37 2.8 86 86 N N/A 30.17 1022 10 16 N/A
11:53 pm 23:53 Clear 46 7.8 28 -2.2 50 50 NNW 10 17 30.19 1022 10 16 N/A

Powered by AerisWeather